GW4027 Weather Reports


time (UTC)temp
F
wind
direction
speed
knots
gust
knots
rain 1hr
in
rain 24hr
in
rain mn
in
humidity
%
barometer
mb
20260508122703 59 152 0.9 2.6 0.00 0.00 0.00 65 1012.6
20260508121803 58 175 0.9 2.6 0.00 0.00 0.00 68 1012.4
20260508120903 59 175 0.9 2.6 0.00 0.00 0.00 63 1012.3
20260508120003 58 145 0.9 2.6 0.00 0.00 0.00 66 1012.5
20260508115403 58 161 0.9 1.7 0.00 0.00 0.00 68 1012.6
20260508114503 58 216 0.9 2.6 0.00 0.00 0.00 68 1012.4
20260508113603 58 216 0.9 2.6 0.00 0.00 0.00 69 1012.6
20260508112703 59 231 0.9 1.7 0.00 0.00 0.00 68 1012.4
20260508111803 57 204 0.9 2.6 0.00 0.00 0.00 69 1012.3
20260508110924 58 16 0.9 2.6 0.00 0.00 0.00 66 1012.2
20260508110024 56 23 0.9 2.6 0.00 0.00 0.00 69 1012.1
20260508105403 58 2 0.9 2.6 0.00 0.00 0.00 66 1012.1
20260508104503 57 199 0.9 2.6 0.00 0.00 0.00 67 1012.1
20260508103603 58 173 0.9 3.5 0.00 0.00 0.00 66 1012.2
20260508102703 58 174 0.9 3.5 0.00 0.00 0.00 66 1012.2
20260508101803 57 183 0.9 2.6 0.00 0.00 0.00 69 1012.4
20260508100924 58 195 0.9 2.6 0.00 0.00 0.00 70 1012.2
20260508100003 60 200 0.9 2.6 0.00 0.00 0.00 64 1012.0
20260508094503 58 150 0.9 2.6 0.00 0.00 0.00 67 1012.0
20260508093603 58 178 0.9 1.7 0.00 0.00 0.00 66 1011.9
20260508092703 58 182 0.9 1.7 0.00 0.00 0.00 66 1011.9
20260508091803 57 143 0.9 2.6 0.00 0.00 0.00 67 1011.9
20260508090903 57 17 0.9 2.6 0.00 0.00 0.00 69 1011.9
20260508090003 58 141 0.9 1.7 0.00 0.00 0.00 66 1011.8
20260508085403 57 242 0.0 1.7 0.00 0.00 0.00 67 1012.0
20260508084503 58 281 0.9 1.7 0.00 0.00 0.00 67 1011.8
20260508083603 58 338 0.9 1.7 0.00 0.00 0.00 66 1011.7
20260508082724 57 304 0.0 0.9 0.00 0.00 0.00 68 1011.8
20260508081803 56 155 0.9 1.7 0.00 0.00 0.00 71 1011.8
20260508080903 56 187 0.9 1.7 0.00 0.00 0.00 69 1011.6
20260508080003 56 219 0.0 1.7 0.00 0.00 0.00 70 1011.6
20260508075403 57 179 0.0 0.9 0.00 0.00 0.00 69 1011.5
20260508074503 56 58 0.0 0.9 0.00 0.00 0.00 70 1011.4
20260508073624 54 360 0.0 1.7 0.00 0.00 0.00 72 1011.5
20260508072724 55 337 0.0 1.7 0.00 0.00 0.00 72 1011.5
20260508071803 54 324 0.0 1.7 0.00 0.00 0.00 73 1011.2
20260508070903 55 284 0.0 0.9 0.00 0.00 0.00 74 1011.3
20260508070003 55 330 0.0 0.9 0.00 0.00 0.00 73 1011.1
20260508065424 54 330 0.0 0.9 0.00 0.00 0.00 75 1011.2
20260508063624 51 339 0.0 0.9 0.00 0.00 0.00 80 1010.9
20260508062703 52 0 0.0 0.0 0.00 0.00 0.00 79 1010.9
20260508061803 52 0 0.0 0.0 0.00 0.00 0.00 78 1010.8
20260508060903 53 0 0.0 0.0 0.00 0.00 0.00 76 1010.6
20260508060003 52 0 0.0 0.0 0.00 0.00 0.00 79 1010.6
20260508055403 52 0 0.0 0.0 0.00 0.00 0.00 82 1010.5
20260508054503 50 0 0.0 0.0 0.00 0.00 0.00 86 1010.4
20260508053603 47 0 0.0 0.0 0.00 0.00 0.00 87 1010.6
20260508052703 47 216 0.0 0.9 0.00 0.00 0.00 86 1010.3
20260508051803 46 217 0.0 0.9 0.00 0.00 0.00 88 1010.4
20260508050903 46 73 0.0 0.9 0.00 0.00 0.00 88 1010.4
20260508050024 45 351 0.0 0.9 0.00 0.00 0.00 89 1010.3
20260508045424 45 319 0.0 0.9 0.00 0.00 0.00 90 1010.5
20260508044524 44 0 0.0 0.0 0.00 0.00 0.00 89 1010.2
20260508043603 45 297 0.0 0.9 0.00 0.00 0.00 89 1010.2
20260508042703 45 0 0.0 0.0 0.00 0.00 0.00 89 1010.1
20260508041803 45 0 0.0 0.0 0.00 0.00 0.00 87 1010.1
20260508040903 46 0 0.0 0.0 0.00 0.00 0.00 85 1010.2
20260508040003 47 25 0.0 0.9 0.00 0.00 0.00 84 1010.1
20260508035403 48 41 0.0 0.9 0.00 0.00 0.00 84 1010.1
20260508034503 48 36 0.0 0.9 0.00 0.00 0.00 83 1009.8
20260508033603 48 47 0.0 1.7 0.00 0.00 0.00 83 1009.6
20260508032703 48 26 0.0 1.7 0.00 0.00 0.00 84 1010.0
20260508031803 47 118 0.0 0.9 0.00 0.00 0.00 85 1009.8
20260508030903 47 145 0.0 1.7 0.00 0.00 0.00 84 1009.7
20260508030003 48 38 0.0 1.7 0.00 0.00 0.00 84 1009.7
20260508025424 48 60 0.0 1.7 0.00 0.00 0.00 84 1009.7
20260508024503 48 46 0.0 0.9 0.00 0.00 0.00 84 1010.0
20260508023603 48 60 0.0 1.7 0.00 0.00 0.00 84 1010.0
20260508022703 48 45 0.0 1.7 0.00 0.00 0.00 84 1009.9
20260508021824 47 6 0.0 0.9 0.00 0.00 0.00 85 1009.8
20260508020903 46 205 0.0 2.6 0.00 0.00 0.00 85 1009.6
20260508020003 47 211 0.0 1.7 0.00 0.00 0.00 85 1009.7
20260508015403 47 188 0.0 0.9 0.00 0.00 0.00 85 1009.8
20260508014524 47 203 0.9 1.7 0.00 0.00 0.00 84 1009.6
20260508013603 46 198 0.9 1.7 0.00 0.00 0.00 85 1009.5
20260508012703 46 204 0.0 1.7 0.00 0.00 0.00 86 1009.6
20260508011803 46 198 0.0 0.9 0.00 0.00 0.00 87 1009.5
20260508010903 46 161 0.0 0.9 0.00 0.00 0.00 87 1009.7
20260508010003 46 144 0.0 0.9 0.00 0.00 0.00 86 1009.8
20260508005424 46 133 0.0 0.9 0.00 0.00 0.00 85 1009.7
20260508004503 47 148 0.0 0.9 0.00 0.00 0.00 84 1009.9
20260508003603 47 178 0.0 1.7 0.00 0.00 0.00 84 1009.8
20260508002703 47 184 0.0 1.7 0.00 0.00 0.00 84 1009.8
20260508001803 47 186 0.0 0.9 0.00 0.00 0.00 84 1009.9
20260508000903 47 57 0.0 0.9 0.00 0.00 0.00 85 1009.8
20260508000003 47 0 0.0 0.0 0.00 0.00 0.00 84 1009.8
20260507235403 47 0 0.0 0.0 0.00 0.00 0.00 83 1009.7
20260507234524 47 34 0.0 0.9 0.00 0.00 0.00 82 1009.8
20260507233603 48 158 0.0 0.9 0.00 0.00 0.00 81 1009.7
20260507232703 49 165 0.0 2.6 0.00 0.00 0.00 80 1009.6
20260507231803 49 174 0.0 2.6 0.00 0.00 0.00 79 1009.5
20260507230903 50 178 0.0 1.7 0.00 0.00 0.00 78 1009.5
20260507230003 50 163 0.0 1.7 0.00 0.00 0.00 78 1009.4
20260507225403 50 170 0.0 2.6 0.00 0.00 0.00 77 1009.4
20260507224504 51 170 0.9 3.5 0.00 0.00 0.00 76 1009.4
20260507223624 50 181 0.9 3.5 0.00 0.00 0.00 77 1009.3
20260507222703 50 144 0.0 0.9 0.00 0.00 0.00 78 1009.3
20260507221824 50 210 0.0 0.9 0.00 0.00 0.00 77 1009.6
20260507220903 51 168 0.0 1.7 0.00 0.00 0.00 76 1009.1
20260507220003 51 189 0.0 0.9 0.00 0.00 0.00 76 1009.2
20260507215403 51 171 0.9 5.2 0.00 0.00 0.00 75 1009.3
20260507214503 52 190 0.9 5.2 0.00 0.00 0.00 74 1009.3
20260507213624 52 214 0.9 2.6 0.00 0.00 0.00 74 1009.2
20260507212724 51 211 0.9 2.6 0.00 0.00 0.00 75 1009.0
20260507211803 51 220 0.9 2.6 0.00 0.00 0.00 76 1009.0
20260507210903 51 200 0.0 2.6 0.00 0.00 0.00 76 1009.0
20260507210003 51 243 0.0 2.6 0.00 0.00 0.00 76 1009.0
20260507205403 51 195 0.0 1.7 0.00 0.00 0.00 76 1008.8
20260507204524 52 200 0.0 0.9 0.00 0.00 0.00 75 1008.7
20260507203603 52 176 0.0 1.7 0.00 0.00 0.00 75 1008.6
20260507202703 51 176 0.0 1.7 0.00 0.00 0.00 76 1008.5
20260507201803 52 181 0.0 0.9 0.00 0.00 0.00 75 1008.3
20260507200903 52 193 0.0 0.9 0.00 0.00 0.00 74 1008.4
20260507200003 52 186 0.0 1.7 0.00 0.00 0.00 74 1008.5
20260507195403 52 199 0.9 1.7 0.00 0.00 0.00 74 1008.3
20260507194503 53 200 0.9 2.6 0.00 0.00 0.00 73 1008.1
20260507193603 53 187 0.0 1.7 0.00 0.00 0.00 72 1008.0
20260507192703 54 183 0.0 0.9 0.00 0.00 0.00 72 1008.2
20260507191824 54 182 0.0 0.9 0.00 0.00 0.00 71 1008.2
20260507190903 55 184 0.9 3.5 0.00 0.00 0.00 71 1008.1
20260507190004 55 194 0.9 2.6 0.00 0.00 0.00 70 1007.9
20260507185424 55 194 0.9 1.7 0.00 0.00 0.00 70 1008.0
20260507184503 55 183 0.9 3.5 0.00 0.00 0.00 70 1007.7
20260507183603 55 192 0.9 2.6 0.00 0.00 0.00 69 1007.7
20260507182703 56 194 0.9 3.5 0.00 0.00 0.00 68 1007.5
20260507181803 56 210 0.9 1.7 0.00 0.00 0.00 67 1007.6
20260507180903 56 203 0.0 0.9 0.00 0.00 0.00 68 1007.5
20260507180003 56 200 0.9 2.6 0.00 0.00 0.00 68 1007.5
20260507175403 56 205 0.9 1.7 0.00 0.00 0.00 68 1007.5
20260507174503 56 204 1.7 7.0 0.00 0.00 0.00 71 1007.5
20260507173603 56 186 0.9 2.6 0.00 0.00 0.00 71 1007.5
20260507172703 56 202 0.9 2.6 0.00 0.00 0.00 71 1007.3
20260507171803 56 197 0.9 3.5 0.00 0.00 0.00 71 1007.3
20260507170903 56 183 0.9 2.6 0.00 0.00 0.00 73 1007.5
20260507170003 56 223 0.9 2.6 0.00 0.00 0.00 73 1007.6
20260507165403 55 226 1.7 7.0 0.00 0.00 0.00 73 1007.6
20260507164503 55 201 1.7 3.5 0.00 0.00 0.00 71 1007.5
20260507163603 55 204 1.7 6.1 0.00 0.00 0.00 71 1007.6
20260507162724 55 210 2.6 7.0 0.00 0.00 0.00 78 1007.7
20260507161803 55 229 1.7 6.1 0.00 0.00 0.00 79 1007.8
20260507160903 55 209 1.7 7.8 0.00 0.00 0.00 79 1007.7
20260507160003 55 210 1.7 6.1 0.00 0.00 0.00 78 1007.9
20260507155403 56 219 2.6 6.1 0.00 0.00 0.00 76 1007.8
20260507154503 56 209 2.6 7.8 0.00 0.00 0.00 76 1007.7
20260507153624 57 197 2.6 7.8 0.00 0.00 0.00 75 1007.8
20260507152703 57 199 2.6 8.7 0.00 0.00 0.00 76 1007.8
20260507151803 57 189 1.7 6.1 0.00 0.00 0.00 75 1007.9
20260507150924 56 214 1.7 7.8 0.00 0.00 0.00 75 1007.8
20260507150024 57 197 1.7 7.8 0.00 0.00 0.00 73 1007.7
20260507145403 57 205 1.7 5.2 0.00 0.00 0.00 72 1008.0
20260507144503 57 202 1.7 5.2 0.00 0.00 0.00 71 1008.0
20260507143624 57 214 0.9 2.6 0.00 0.00 0.00 72 1008.2
20260507142703 56 212 1.7 5.2 0.00 0.00 0.00 73 1008.1
20260507141803 57 190 0.9 6.1 0.00 0.00 0.00 71 1008.2
20260507140903 56 193 1.7 5.2 0.00 0.00 0.00 69 1008.2
20260507140003 57 187 1.7 3.5 0.00 0.00 0.00 67 1008.3
20260507135403 57 213 1.7 6.1 0.00 0.00 0.00 66 1008.3
20260507134503 56 180 1.7 6.1 0.00 0.00 0.00 67 1008.3
20260507133603 56 189 1.7 5.2 0.00 0.00 0.00 73 1008.4
20260507132724 57 191 1.7 5.2 0.00 0.00 0.00 72 1008.2
20260507131824 56 234 1.7 5.2 0.00 0.00 0.00 74 1008.3
20260507130903 56 198 2.6 6.1 0.00 0.00 0.00 74 1008.3
20260507130003 58 225 1.7 7.0 0.00 0.00 0.00 70 1008.4
20260507125403 57 204 1.7 7.0 0.00 0.00 0.00 69 1008.4
20260507124503 58 202 2.6 6.1 0.00 0.00 0.00 67 1008.6
20260507123603 59 229 2.6 6.1 0.00 0.00 0.00 66 1008.4